Preview of NWS' New Version of Forecast
This preview is not operational and should not be used for support decisions.

Regional Weather Roundup (RWR)

Issued by National Weather Service (NWS)

                            
000
ASUS43 KFSD 200910
RWRSD 

WEATHER ROUNDUP FOR SOUTH DAKOTA
NATIONAL WEATHER SERVICE SIOUX FALLS SD
300 AM CST WED FEB 20 2019

NOTE: "FAIR" INDICATES FEW OR NO CLOUDS BELOW 12,000 FEET WITH NO
SIGNIFICANT WEATHER AND/OR OBSTRUCTIONS TO VISIBILITY.


SDZ001>005-009-010-012>017-201000-
NORTHWEST AND NORTH CENTRAL SOUTH DAKOTA
  
CITY           SKY/WX    TMP DP  RH WIND       PRES   REMARKS
BUFFALO          N/A      2  -4  76 E5        29.67F WCI  -8          
FAITH            N/A     13  10  88 SE13      29.71F WCI  -2          
MOBRIDGE       LGT SNOW  14   9  80 SE13      29.80F WCI   0          
$$
 
SDZ012>016-024>037-041>051-057-063-072>074-201000-
SOUTHWEST AND SOUTH CENTRAL SOUTH DAKOTA
  
CITY           SKY/WX    TMP DP  RH WIND       PRES   REMARKS
RAPID CTY ARPT CLEAR      2  -2  83 N10       29.65F WCI -14          
PIERRE         LGT SNOW  14  12  92 SE12      29.80F FOG     WCI   0  
CUSTER         CLEAR      3  -1  83 NE3       29.49F                  
ELLSWORTH AFB  CLOUDY     3   3  98 NW7       29.65F WCI  -9          
PHILIP         CLOUDY    10   9  95 E3        29.74F                  
PINE RIDGE     CLOUDY     9   4  80 S5        29.65F WCI   1          
SPEARFISH      MOCLDY    10   7  85 CALM      29.61F                  
WINNER         LGT SNOW  16  11  80 SE9       29.78F WCI   4          
$$
 
SDZ004>011-016>023-039-040-201000-
NORTHEAST SOUTH DAKOTA
  
CITY           SKY/WX    TMP DP  RH WIND       PRES   REMARKS
ABERDEEN       LGT SNOW  14  11  87 E5        29.93F VSB 1   WCI   6  
WATERTOWN      LGT SNOW  12   9  87 E9        29.90F VSB 3/4 WCI   0  
BROOKINGS      SNOW      13  11  92 E6        29.90F VSB 1/2 WCI   4  
SISSETON         N/A     10   7  87 SE12      29.99F WCI  -5          
$$
 
SDZ017-020-022-023-036>040-048>070-201000-
SOUTHEAST SOUTH DAKOTA
  
CITY           SKY/WX    TMP DP  RH WIND       PRES   REMARKS
SIOUX FALLS    SNOW      16  14  92 E7        29.88F VSB 1/2 WCI   6  
HURON          LGT SNOW  15  12  88 SE7       29.89F VSB 1   WCI   5  
CHAMBERLAIN    LGT SNOW  16  15  98 E7        29.82F WCI   6          
MADISON        LGT SNOW  14  14 100 E13       29.86F VSB 1   WCI   0  
MITCHELL       SNOW      16  12  84 E10       29.89F VSB 1/2 WCI   4  
YANKTON        LGT SNOW  16  14  92 E7        29.86F VSB 1   WCI   6  
$$
 
ABBREVIATIONS USED IN REMARKS
   TC - TEMPERATURE IN CELSIUS
  WCI - WIND CHILL INDEX
   HX - HEAT INDEX
  VSB - VISIBILITY